EZY57H EGAA-EGPH

Flight info

Callsign EZY57H
Flight time 0h 47m
Altitude 19000
Route BLACA P600 TUNSO
Aircraft A320/M-SDE2E3FGHIJ1RWXYZ/LB1

Departure

Time 2026-04-21 22:31
Airport Belfast International Airport (EGAA)

Arrival

Time 2026-04-21 23:19
Airport Edinburgh Airport (EGPH)
Time Latitude Longitude Altitude Speed Heading
2026-04-21 22:13 54.65085 -6.23202 222 ft 0 kts 92°
2026-04-21 22:28 54.65085 -6.23204 222 ft 0 kts 92°
2026-04-21 22:28 54.65085 -6.23163 223 ft 8 kts 81°
2026-04-21 22:28 54.65105 -6.23176 222 ft 4 kts 319°
2026-04-21 22:29 54.65137 -6.23216 221 ft 15 kts 326°
2026-04-21 22:29 54.65174 -6.23257 220 ft 0 kts 325°
2026-04-21 22:29 54.65179 -6.23278 219 ft 3 kts 303°
2026-04-21 22:29 54.65196 -6.23322 218 ft 8 kts 300°
2026-04-21 22:30 54.65248 -6.23422 217 ft 10 kts 32°
2026-04-21 22:30 54.65280 -6.23323 225 ft 10 kts 64°
2026-04-21 22:30 54.65332 -6.23121 222 ft 47 kts 67°
2026-04-21 22:30 54.65576 -6.22198 231 ft 119 kts 67°
2026-04-21 22:31 54.65984 -6.20623 383 ft 157 kts 67°
2026-04-21 22:31 54.66431 -6.19009 1415 ft 142 kts 68°
2026-04-21 22:31 54.66847 -6.17583 2374 ft 127 kts 69°
2026-04-21 22:31 54.67286 -6.16174 2926 ft 138 kts 66°
2026-04-21 22:32 54.67802 -6.14713 3495 ft 147 kts 63°
2026-04-21 22:32 54.68270 -6.13089 3981 ft 157 kts 76°
2026-04-21 22:32 54.68591 -6.11202 4407 ft 171 kts 78°
2026-04-21 22:32 54.68929 -6.09130 4820 ft 187 kts 77°
2026-04-21 22:33 54.69322 -6.06863 5242 ft 207 kts 75°
2026-04-21 22:33 54.69777 -6.04392 5794 ft 225 kts 74°
2026-04-21 22:33 54.70294 -6.01730 6383 ft 242 kts 73°
2026-04-21 22:33 54.70865 -5.98898 7079 ft 254 kts 72°
2026-04-21 22:34 54.71468 -5.95994 7958 ft 259 kts 72°
2026-04-21 22:34 54.72088 -5.93047 8861 ft 262 kts 72°
2026-04-21 22:34 54.72721 -5.90062 9758 ft 267 kts 72°
2026-04-21 22:34 54.73368 -5.87034 10620 ft 272 kts 72°
2026-04-21 22:35 54.74045 -5.83874 11134 ft 288 kts 71°
2026-04-21 22:35 54.74762 -5.80524 11599 ft 305 kts 71°
2026-04-21 22:35 54.75513 -5.77009 12204 ft 315 kts 71°
2026-04-21 22:35 54.76279 -5.73417 12992 ft 320 kts 71°
2026-04-21 22:36 54.77834 -5.66091 14505 ft 328 kts 72°
2026-04-21 22:36 54.78625 -5.62351 15175 ft 333 kts 71°
2026-04-21 22:36 54.79413 -5.58611 15817 ft 337 kts 72°
2026-04-21 22:37 54.80220 -5.54771 16469 ft 341 kts 72°
2026-04-21 22:37 54.81037 -5.50883 17131 ft 345 kts 72°
2026-04-21 22:37 54.81864 -5.46946 17773 ft 350 kts 72°
2026-04-21 22:37 54.82701 -5.42956 18410 ft 354 kts 72°
2026-04-21 22:38 54.83549 -5.38915 19012 ft 359 kts 72°
2026-04-21 22:38 54.84406 -5.34821 19370 ft 363 kts 72°
2026-04-21 22:38 54.85259 -5.30735 19458 ft 355 kts 72°
2026-04-21 22:38 54.86078 -5.26800 19470 ft 339 kts 72°
2026-04-21 22:39 54.86879 -5.22954 19466 ft 338 kts 71°
2026-04-21 22:39 54.87892 -5.19271 19472 ft 340 kts 59°
2026-04-21 22:39 54.89370 -5.16043 19470 ft 343 kts 46°
2026-04-21 22:39 54.91242 -5.13469 19475 ft 345 kts 33°
2026-04-21 22:40 54.93382 -5.11546 19474 ft 346 kts 28°
2026-04-21 22:40 54.95541 -5.09700 19479 ft 346 kts 28°
2026-04-21 22:40 54.97697 -5.07840 19476 ft 346 kts 28°
2026-04-21 22:40 54.99823 -5.05991 19482 ft 346 kts 28°
2026-04-21 22:41 55.01948 -5.04140 19254 ft 339 kts 28°
2026-04-21 22:41 55.04055 -5.02303 18867 ft 337 kts 28°
2026-04-21 22:41 55.06150 -5.00475 18418 ft 336 kts 28°
2026-04-21 22:41 55.08230 -4.98648 17986 ft 333 kts 31°
2026-04-21 22:42 55.10108 -4.96354 17591 ft 327 kts 45°
2026-04-21 22:42 55.11588 -4.93412 17308 ft 318 kts 58°
2026-04-21 22:42 55.12619 -4.90094 17182 ft 308 kts 69°
2026-04-21 22:42 55.13473 -4.86662 17010 ft 307 kts 68°
2026-04-21 22:43 55.14328 -4.83247 16841 ft 306 kts 68°
2026-04-21 22:43 55.15181 -4.79844 16669 ft 305 kts 68°
2026-04-21 22:43 55.16028 -4.76451 16507 ft 304 kts 69°
2026-04-21 22:43 55.16867 -4.73074 16331 ft 303 kts 69°
2026-04-21 22:44 55.17700 -4.69703 16166 ft 302 kts 69°
2026-04-21 22:44 55.18530 -4.66334 15997 ft 301 kts 69°
2026-04-21 22:44 55.19359 -4.62971 15704 ft 302 kts 69°
2026-04-21 22:44 55.20192 -4.59586 15296 ft 303 kts 69°
2026-04-21 22:45 55.21022 -4.56206 14922 ft 302 kts 69°
2026-04-21 22:45 55.21850 -4.52830 14551 ft 302 kts 69°
2026-04-21 22:45 55.22678 -4.49452 14172 ft 301 kts 69°
2026-04-21 22:45 55.23501 -4.46089 13775 ft 300 kts 69°
2026-04-21 22:46 55.24318 -4.42758 13499 ft 295 kts 69°
2026-04-21 22:46 55.25117 -4.39491 13283 ft 288 kts 69°
2026-04-21 22:46 55.25895 -4.36292 13068 ft 286 kts 69°
2026-04-21 22:46 55.26662 -4.33128 12859 ft 285 kts 69°
2026-04-21 22:47 55.27438 -4.29929 12654 ft 284 kts 69°
2026-04-21 22:47 55.28209 -4.26750 12447 ft 283 kts 69°
2026-04-21 22:47 55.28976 -4.23577 12223 ft 282 kts 69°
2026-04-21 22:47 55.29741 -4.20413 12025 ft 281 kts 68°
2026-04-21 22:48 55.30417 -4.17496 11859 ft 281 kts 69°
2026-04-21 22:48 55.31169 -4.14343 11664 ft 280 kts 68°
2026-04-21 22:48 55.31935 -4.11206 11449 ft 279 kts 68°
2026-04-21 22:48 55.32700 -4.08078 11259 ft 278 kts 68°
2026-04-21 22:49 55.33457 -4.04963 11057 ft 278 kts 68°
2026-04-21 22:49 55.34082 -4.02379 10896 ft 277 kts 68°
2026-04-21 22:49 55.34418 -4.00985 10799 ft 277 kts 68°
2026-04-21 22:49 55.35166 -3.97867 10608 ft 276 kts 68°
2026-04-21 22:50 55.35906 -3.94774 10402 ft 274 kts 68°
2026-04-21 22:50 55.36643 -3.91682 10196 ft 273 kts 68°
2026-04-21 22:50 55.37376 -3.88610 9976 ft 272 kts 67°
2026-04-21 22:50 55.38440 -3.85799 9759 ft 278 kts 45°
2026-04-21 22:51 55.40052 -3.84005 9539 ft 276 kts 24°
2026-04-21 22:51 55.41842 -3.82754 9279 ft 275 kts 24°
2026-04-21 22:51 55.43614 -3.81523 8963 ft 274 kts 24°
2026-04-21 22:51 55.45365 -3.80308 8651 ft 273 kts 24°
2026-04-21 22:52 55.47130 -3.79084 8341 ft 272 kts 24°
2026-04-21 22:52 55.48879 -3.77862 8034 ft 271 kts 24°
2026-04-21 22:52 55.50628 -3.76635 7729 ft 269 kts 24°
2026-04-21 22:52 55.52365 -3.75415 7422 ft 268 kts 24°
2026-04-21 22:53 55.54088 -3.74204 7114 ft 267 kts 24°
2026-04-21 22:53 55.55812 -3.72994 6817 ft 265 kts 24°
2026-04-21 22:53 55.57523 -3.71789 6578 ft 264 kts 24°
2026-04-21 22:53 55.59227 -3.70586 6375 ft 264 kts 24°
2026-04-21 22:54 55.60930 -3.69380 6171 ft 262 kts 24°
2026-04-21 22:54 55.62619 -3.68185 5964 ft 261 kts 24°
2026-04-21 22:54 55.64300 -3.66997 5747 ft 260 kts 24°
2026-04-21 22:54 55.65983 -3.65813 5546 ft 259 kts 22°
2026-04-21 22:55 55.67745 -3.65150 5366 ft 262 kts
2026-04-21 22:55 55.69555 -3.65527 5183 ft 265 kts 346°
2026-04-21 22:55 55.71228 -3.66940 4996 ft 269 kts 327°
2026-04-21 22:55 55.72689 -3.69023 4811 ft 269 kts 323°
2026-04-21 22:56 55.74123 -3.71111 4624 ft 262 kts 323°
2026-04-21 22:56 55.75499 -3.73125 4443 ft 252 kts 322°
2026-04-21 22:56 55.76805 -3.75099 4254 ft 238 kts 331°
2026-04-21 22:56 55.78245 -3.76203 4099 ft 215 kts 353°
2026-04-21 22:57 55.79724 -3.76336 4006 ft 210 kts 12°
2026-04-21 22:57 55.81039 -3.75656 4005 ft 186 kts 30°
2026-04-21 22:57 55.82108 -3.74383 4015 ft 184 kts 46°
2026-04-21 22:57 55.82903 -3.72642 4015 ft 178 kts 61°
2026-04-21 22:58 55.83507 -3.70883 4017 ft 156 kts 60°
2026-04-21 22:58 55.84039 -3.69339 4060 ft 135 kts 60°
2026-04-21 22:58 55.84517 -3.67946 3996 ft 133 kts 60°
2026-04-21 22:58 55.85005 -3.66525 3875 ft 133 kts 61°
2026-04-21 22:59 55.85488 -3.65118 3723 ft 133 kts 61°
2026-04-21 22:59 55.85961 -3.63741 3551 ft 132 kts 61°
2026-04-21 22:59 55.86438 -3.62350 3375 ft 131 kts 61°
2026-04-21 22:59 55.86913 -3.60963 3178 ft 131 kts 61°
2026-04-21 23:00 55.87388 -3.59576 3008 ft 131 kts 61°
2026-04-21 23:00 55.87859 -3.58200 2833 ft 130 kts 61°
2026-04-21 23:00 55.88331 -3.56822 2655 ft 130 kts 61°
2026-04-21 23:00 55.88799 -3.55453 2471 ft 129 kts 61°
2026-04-21 23:01 55.89266 -3.54085 2287 ft 129 kts 62°
2026-04-21 23:01 55.89732 -3.52721 2107 ft 129 kts 61°
2026-04-21 23:01 55.90197 -3.51360 1915 ft 129 kts 61°
2026-04-21 23:01 55.90662 -3.49997 1738 ft 128 kts 61°
2026-04-21 23:02 55.91125 -3.48641 1562 ft 128 kts 60°
2026-04-21 23:02 55.91587 -3.47288 1388 ft 128 kts 60°
2026-04-21 23:02 55.92057 -3.45942 1148 ft 128 kts 59°
2026-04-21 23:02 55.92515 -3.44593 892 ft 127 kts 61°
2026-04-21 23:03 55.92968 -3.43232 701 ft 127 kts 60°
2026-04-21 23:03 55.93428 -3.41889 523 ft 127 kts 58°
2026-04-21 23:03 55.93882 -3.40545 356 ft 126 kts 60°
2026-04-21 23:03 55.94333 -3.39199 232 ft 126 kts 59°
2026-04-21 23:04 55.94785 -3.37881 124 ft 118 kts 59°
2026-04-21 23:04 55.95223 -3.36543 464 ft 136 kts 61°
2026-04-21 23:04 55.95721 -3.35024 1287 ft 146 kts 60°
2026-04-21 23:04 55.96239 -3.33534 2099 ft 140 kts 60°
2026-04-21 23:05 55.96763 -3.32069 2738 ft 142 kts 59°
2026-04-21 23:05 55.97316 -3.30536 3275 ft 156 kts 59°
2026-04-21 23:05 55.97853 -3.28736 3672 ft 174 kts 75°
2026-04-21 23:05 55.97781 -3.26498 3983 ft 199 kts 111°
2026-04-21 23:06 55.96883 -3.24558 4007 ft 210 kts 142°
2026-04-21 23:06 55.95620 -3.23227 4010 ft 211 kts 148°
2026-04-21 23:06 55.94312 -3.22013 4010 ft 212 kts 149°
2026-04-21 23:06 55.92990 -3.20860 4009 ft 213 kts 157°
2026-04-21 23:07 55.91515 -3.20542 4010 ft 220 kts 188°
2026-04-21 23:07 55.90151 -3.21766 4010 ft 227 kts 223°
2026-04-21 23:07 55.89211 -3.24042 4016 ft 230 kts 237°
2026-04-21 23:07 55.88857 -3.25110 4012 ft 230 kts 239°
2026-04-21 23:08 55.88620 -3.25851 4006 ft 230 kts 239°
2026-04-21 23:08 55.87840 -3.28343 4011 ft 230 kts 239°
2026-04-21 23:08 55.87068 -3.30829 4008 ft 230 kts 239°
2026-04-21 23:09 55.86309 -3.33339 4011 ft 230 kts 245°
2026-04-21 23:09 55.85714 -3.35984 4010 ft 231 kts 249°
2026-04-21 23:09 55.85105 -3.38628 4011 ft 230 kts 243°
2026-04-21 23:09 55.84362 -3.41145 4012 ft 230 kts 239°
2026-04-21 23:10 55.83580 -3.43589 4011 ft 230 kts 239°
2026-04-21 23:10 55.82779 -3.46060 4009 ft 230 kts 238°
2026-04-21 23:10 55.81981 -3.48521 4015 ft 230 kts 238°
2026-04-21 23:10 55.81181 -3.50988 4016 ft 229 kts 238°
2026-04-21 23:11 55.80382 -3.53447 4012 ft 230 kts 238°
2026-04-21 23:11 55.79582 -3.55908 4010 ft 230 kts 238°
2026-04-21 23:11 55.78782 -3.58366 4012 ft 230 kts 238°
2026-04-21 23:11 55.77993 -3.60842 4014 ft 230 kts 239°
2026-04-21 23:12 55.77430 -3.63479 4010 ft 230 kts 266°
2026-04-21 23:12 55.77717 -3.66238 4010 ft 228 kts 302°
2026-04-21 23:12 55.78743 -3.68330 4012 ft 224 kts 327°
2026-04-21 23:12 55.80102 -3.69595 4015 ft 219 kts 348°
2026-04-21 23:13 55.81582 -3.69945 4013 ft 213 kts
2026-04-21 23:13 55.83011 -3.69407 4011 ft 209 kts 26°
2026-04-21 23:13 55.84219 -3.68115 3999 ft 197 kts 44°
2026-04-21 23:13 55.85084 -3.66300 3840 ft 187 kts 60°
2026-04-21 23:14 55.85731 -3.64408 3638 ft 175 kts 60°
2026-04-21 23:14 55.86357 -3.62583 3400 ft 169 kts 60°
2026-04-21 23:14 55.86962 -3.60820 3166 ft 164 kts 60°
2026-04-21 23:14 55.87547 -3.59113 2949 ft 159 kts 61°
2026-04-21 23:15 55.88104 -3.57488 2727 ft 147 kts 61°
2026-04-21 23:15 55.88605 -3.56023 2540 ft 131 kts 61°
2026-04-21 23:15 55.89071 -3.54660 2350 ft 129 kts 62°
2026-04-21 23:15 55.89535 -3.53300 2172 ft 128 kts 62°
2026-04-21 23:16 55.89997 -3.51948 1990 ft 128 kts 61°
2026-04-21 23:16 55.90454 -3.50608 1826 ft 128 kts 61°
2026-04-21 23:16 55.90915 -3.49257 1624 ft 127 kts 60°
2026-04-21 23:16 55.91373 -3.47910 1447 ft 127 kts 60°
2026-04-21 23:17 55.91826 -3.46562 1238 ft 127 kts 60°
2026-04-21 23:17 55.92287 -3.45225 1007 ft 127 kts 59°
2026-04-21 23:17 55.92750 -3.43881 821 ft 127 kts 59°
2026-04-21 23:17 55.93209 -3.42542 649 ft 126 kts 60°
2026-04-21 23:18 55.93652 -3.41191 468 ft 126 kts 59°
2026-04-21 23:18 55.94106 -3.39867 293 ft 126 kts 60°
2026-04-21 23:18 55.94561 -3.38535 147 ft 125 kts 59°
2026-04-21 23:18 55.94963 -3.37352 112 ft 78 kts 60°
2026-04-21 23:19 55.95103 -3.36935 115 ft 20 kts 58°
2026-04-21 23:19 55.95181 -3.36723 114 ft 20 kts 64°
2026-04-21 23:19 55.95250 -3.36517 108 ft 13 kts 57°
2026-04-21 23:19 55.95228 -3.36389 108 ft 13 kts 154°
2026-04-21 23:20 55.95147 -3.36319 109 ft 12 kts 176°
2026-04-21 23:20 55.95093 -3.36390 112 ft 8 kts 229°
2026-04-21 23:20 55.95079 -3.36404 112 ft 4 kts 181°
2026-04-21 23:20 55.95019 -3.36398 109 ft 9 kts 205°
2026-04-21 23:21 55.94982 -3.36490 110 ft 9 kts 238°
2026-04-21 23:21 55.94967 -3.36536 110 ft 5 kts 239°
2026-04-21 23:21 55.94944 -3.36545 109 ft 5 kts 130°
2026-04-21 23:21 55.94924 -3.36516 109 ft 4 kts 144°
2026-04-21 23:22 55.94909 -3.36499 107 ft 4 kts 148°
2026-04-21 23:22 55.94908 -3.36497 107 ft 0 kts 148°
2026-04-21 23:22 39.98938 4.27755 1892 ft 140 kts 218°
2026-04-21 23:23 39.98480 4.27272 1902 ft 144 kts 218°